www.pogodaiklimat.ru

Погода и климат >> Архив погоды >> Россия >> Камчатский край >> Петропавловск-Камчатский


АРХИВ ПОГОДЫ в Петропавловск-Камчатском

Время (UTC), дата Ветер
(напр.,м/с)
 
Видим.   Явления Облачность Т
(С)
Тd
(С)
f
(%)
Тe
(С)
Тes
(С)
Комфортность P
(гПа)
Po
(гПа)
Тmin
(С)
Tmax
(С)
R
(мм)
R24
(мм)
S
(см)
18 18.05 С 4 50 км 10/0
[Ac As Ci sp]
+8.6 +0.4 56 +6 +6 тепло 1018.1 1015.1
21 18.05 СЗ 4 20 км слаб. ливневой дождь 10/8 600 м
[Cb cap Ac und]
+8.8 +1.4 60 +6 +6 тепло 1017.7 1014.7 +7.4 0.0
00 19.05 штиль 0 10 км слаб. ливневой дождь 10/10 600 м
[Cb cap]
+6.8 +3.4 79 +6 +6 по сезону 1016.1 1013.1 +6.7
03 19.05 штиль 0 50 км {ливн. осадки} 9/4 600 м
[Sc Ac trans Ci fib]
+11.4 +6.1 70 +11 +18 тепло 1013.0 1010.1
06 19.05 ЮВ 7 10 км туман на расстоянии {ливн. осадки} 10/3 600 м
[Sc Ac trans Ci fib]
+6.4 +3.3 81 +1 +2 прохладно 1009.6 1006.6
09 19.05 ЮВ 2
{10}
10 км слаб. ливневой дождь 10/10 600 м
[Cb cap]
+4.8 +2.7 86 +2 +2 по сезону 1008.3 1005.4 +11.7 2
12 19.05 С 2 20 км {ливн. осадки} 8/8 600 м
[Sc]
+5.9 +4.2 89 +3 +3 по сезону 1007.6 1004.7
15 19.05 СЗ 4 50 км 3/3 600 м
[Sc]
+7.4 +3.7 77 +4 +4 по сезону 1006.2 1003.3
18 19.05 С 5 50 км 8/3 1000 м
[Sc Ci fib]
+8.5 +3.1 69 +5 +5 тепло 1005.7 1002.7
21 19.05 СЗ 7-11
{13}
50 км 8/6 1000 м
[Sc Ci fib]
+11.5 +3.9 60 +9 +9 тепло 1006.2 1003.3 +4.8 0.1
00 20.05 СЗ 13-16
{16}
50 км 3/1 1000 м
[Sc Ci fib]
+12.5 +3.1 53 +9 +9 тепло 1004.5 1001.7
03 20.05 З 16-19
{19}
50 км 3/1 600 м
[Sc Ac trans]
+11.7 +1.4 49 +7 +7 по сезону 1004.9 1002.0
06 20.05 З 12-15
{19}
50 км 3/1 1000 м
[Sc Ci fib]
+10.5 +1.8 55 +6 +6 по сезону 1006.1 1003.2
09 20.05 СЗ 9-11
{18}
50 км 5/1 600 м
[Sc Ac trans Ci fib]
+10.0 +2.0 58 +6 +6 по сезону 1007.5 1004.6 +13.3
12 20.05 СЗ 9-11
{15}
50 км 3/0
[Ac trans Ci fib]
+9.4 +1.2 57 +5 +5 по сезону 1008.1 1005.2
15 20.05 С 6
{11}
50 км 8/0
[Ac trans Ci fib]
+10.0 0.0 50 +7 +7 тепло 1009.0 1006.1
18 20.05 С 4
{10}
50 км 9/1 1000 м
[Sc Ac trans Ci fib]
+7.7 +0.5 60 +5 +5 тепло 1010.5 1007.5
21 20.05 С 4 50 км 9/0
[Ac trans Ci fib]
+11.7 +0.6 46 +10 +13 тепло 1012.4 1009.5 +7.7
00 21.05 ЮВ 6-12
{12}
50 км 9/0
[Cs]
+12.3 +1.7 48 +10 +15 тепло 1015.3 1012.4
03 21.05 Ю 2
{13}
50 км 9/0
[Ci fib]
+12.4 +2.4 50 +12 +24 опасность
простуды
1018.3 1015.4
06 21.05 Ю 3 50 км 8/0
[Ci fib]
+11.4 +0.8 48 +10 +14 тепло 1021.0 1018.1
09 21.05 ЮВ 4
{11}
50 км 10/1 600 м
[Sc Ac trans Ci fib]
+6.7 +1.3 68 +3 +3 по сезону 1024.7 1021.7 +16.5
12 21.05 ЮВ 4 20 км 8/4 600 м
[Sc Ac trans Ci fib]
+5.7 +0.8 71 +2 +2 по сезону 1026.6 1023.6
15 21.05 Ю 2 20 км 10/5 300 м
[Sc Ac trans Ci fib]
+4.7 +1.6 80 +2 +2 по сезону 1027.1 1024.1
18 21.05 ЮВ 2 10 км туман на расстоянии 10/10 200 м
[Sc]
+3.9 +1.8 86 +1 +1 по сезону 1027.5 1024.5
21 21.05 Ю 3 10 км туман на расстоянии 10/10 200 м
[Sc]
+4.4 +1.8 83 +1 +1 по сезону 1027.9 1024.9 +3.8
00 22.05 Ю 1 10 км туман на расстоянии 10/10 300 м
[Sc]
+5.8 +2.3 78 +5 +5 по сезону 1028.2 1025.2
03 22.05 Ю 1 20 км туман на расстоянии 10/9 300 м
[Sc Ac trans]
+8.0 +2.7 69 +7 +8 по сезону 1027.9 1024.9
06 22.05 ЮВ 5 10 км туман на расстоянии 10/10 300 м
[Sc]
+5.6 +1.9 77 +1 +1 прохладно 1027.5 1024.5
09 22.05 ЮВ 4 10 км 10/10 300 м
[Sc]
+4.8 +1.8 81 +1 +1 прохладно 1027.5 1024.5 +8.9
12 22.05 ЮВ 3 10 км 10/10 300 м
[Sc]
+4.3 +1.9 84 +1 +1 по сезону 1028.1 1025.0
15 22.05 ЮВ 2 10 км 10/10 300 м
[Sc]
+4.1 +1.7 84 +1 +1 по сезону 1026.9 1023.9
18 22.05 ЮВ 4 4000 м слаб. морось {дождь} 10/10 200 м
[St]
+3.8 +2.2 89 -1 -1 по сезону 1025.4 1022.3
21 22.05 ЮВ 5 4000 м слаб. дождь {морось} 10/10 200 м
[Frnb Ns]
+3.7 +2.1 89 -1 -1 прохладно 1024.5 1021.4 +3.7 0.1
00 23.05 ЮВ 4 4000 м слаб. дождь {морось} 10/10 200 м
[Frnb Ns]
+3.9 +2.3 89 -1 -1 холодно 1023.0 1020.0
03 23.05 ЮВ 4 4000 м слаб. дождь 10/10 200 м
[Frnb Ns]
+4.0 +2.1 87 -1 -1 холодно 1020.8 1017.8
06 23.05 ЮВ 6
{10}
10 км слаб. дождь 10/10 200 м
[Frnb Ns]
+3.9 +2.1 88 -2 -2 холодно 1018.6 1015.6
09 23.05 В 4
{10}
4000 м слаб. дождь 10/10 200 м
[Frnb Ns]
+4.2 +1.9 85 -0 -0 прохладно 1017.4 1014.4 +4.3 4
12 23.05 В 2
{10}
4000 м морось {дождь} 10/10 200 м
[Frnb Ns]
+4.2 +1.9 85 +1 +1 по сезону 1016.7 1013.7
15 23.05 ЮЗ 1 4000 м слаб. морось {дождь} 10/10 200 м
[Frnb Ns]
+4.1 +2.4 89 +3 +3 по сезону 1015.8 1012.9
18 23.05 СЗ 1 4000 м слаб. морось 10/10 200 м
[St]
+4.0 +2.7 91 +2 +2 по сезону 1014.9 1011.9
21 23.05 С 1 4000 м слаб. дождь {морось} 10/10 200 м
[Frnb Ns]
+4.2 +3.1 93 +3 +3 по сезону 1014.6 1011.6 +3.8 0.4
00 24.05 штиль 0 10 км слаб. морось {дождь} 10/10 300 м
[St]
+5.2 +3.4 88 +4 +4 по сезону 1013.7 1010.7
03 24.05 Ю 2 10 км слаб. дождь {морось} 10/10 200 м
[Frnb Ns]
+5.9 +3.7 86 +3 +3 прохладно 1012.8 1009.9
06 24.05 СВ 1 10 км слаб. дождь {морось} 10/10 100 м
[Frnb Ns]
+5.5 +3.6 88 +4 +4 по сезону 1011.7 1008.7
09 24.05 ЮВ 2 4000 м слаб. дождь 10/10 200 м
[Frnb Ns]
+5.0 +3.8 92 +2 +2 по сезону 1010.8 1007.8 +6.7 0.8
12 24.05 ЮВ 3 4000 м слаб. дождь 10/10 200 м
[Frnb Ns]
+4.9 +3.1 88 +1 +1 по сезону 1009.8 1006.8
15 24.05 СВ 2
{13}
4000 м слаб. дождь 10/10 200 м
[Frnb Ns]
+5.3 +2.5 82 +3 +3 по сезону 1007.4 1004.5
18 24.05 В 3
{12}
2000 м слаб. дождь 10/10 300 м
[Frnb Ns]
+5.5 +2.5 81 +2 +2 по сезону 1005.4 1002.4
21 24.05 СЗ 5 2000 м слаб. дождь 10/10 300 м
[Frnb Ns]
+5.1 +3.1 87 0 0 прохладно 1003.6 1000.7 +4.8 5
00 25.05 С 3 2000 м слаб. дождь 10/10 200 м
[Frnb Ns]
+5.7 +4.5 92 +2 +2 прохладно 1001.8 998.9
03 25.05 З 1 10 км в посл. час дождь 10/10 300 м
[Sc]
+7.1 +4.6 84 +6 +6 по сезону 1000.1 997.2
06 25.05 Ю 1 50 км {дождь} 10/4 600 м
[Sc Ac trans Ci fib]
+10.0 +5.3 73 +10 +12 тепло 998.7 995.8
09 25.05 Ю 1 20 км 10/10 1000 м
[Sc]
+7.4 +2.9 73 +7 +7 по сезону 998.8 995.9 +10.5 2
12 25.05 ЮВ 3 20 км 10/10 600 м
[Sc]
+6.0 +1.6 73 +3 +3 по сезону 1000.2 997.3
15 25.05 ЮВ 3 20 км 8/8 600 м
[Sc]
+5.5 +0.9 72 +2 +2 по сезону 1000.8 997.9

 

Местоположение метеостанции Петропавловск-Камчатский (Камчатский край, Россия): широта 52.87 долгота 158.60 высота над уровнем моря 24 м.

В архиве по умолчанию представлена погода в Петропавловск-Камчатском за последнюю неделю. Архивные данные за месяц целиком и за предыдущие месяцы, начиная с января 2011 года, Вы можете получить, выбрав интересующий диапазон дат из раскрывающегося списка и нажав кнопку "Ввод!".


*Определитесь, кто Вы:
робот инопланетянин человек

Внимание! Время в таблицах - всемирное. Для получения местного времени необходимо прибавить поправку, которая равна 12 ч.

Смотрите также архив погоды в соседних городах и на ближайших метеорологических станциях:

Погода в Петропавловском Маяке (Камчатский край, Россия) (7 км)
Погода в Петропавловск-Камч. 2 (Камчатский край, Россия) (24 км)
Погода в Сосновке (Камчатский край, Россия) (31 км)
Погода в Начиках (Камчатский край, Россия) (66 км)
Погода в Водопадной (Камчатский край, Россия) (124 км)
Погода в Пущино (Камчатский край, Россия) (151 км)
Погода в Большерецке (Камчатский край, Россия) (155 км)
Погода в Семячике (Камчатский край, Россия) (163 км)
Погода в Мильково (Камчатский край, Россия) (201 км)
Погода в Озерной (Камчатский край, Россия) (215 км)

Пояснения к столбцам:

Ветер - указаны скорость ветра в м/с - средняя за 10 мин, порывы в срок и между сроками (в фигурных скобках) и направление, откуда дует ветер: С - северный, СВ - северо-восточный, В - восточный, ЮВ - юго-восточный, Ю - южный, ЮЗ - юго-западный, З - западный, СЗ - северо-западный.
Видимость - горизонтальная дальность видимости в метрах или километрах. При видимости от 1 до 10 км при отсутствии осадков обычно наблюдается дымка, при ухудшении видимости до 1 км и менее - туман. В сухую погоду видимость может ухудшаться дымом, пылью или мглою.
Явления - указаны атмосферные явления, наблюдавшиеся в срок или в последний час перед сроком; фигурными скобками обозначены явления, наблюдавшиеся между сроками (за 1-3 часа до срока); квадратными скобками обозначены град или гололедные отложения с указанием их диаметра в мм.
Облачность - указаны через наклонную черту общая и нижняя облачность в баллах и высота нижней границы облаков в метрах; квадратными скобками обозначены формы облаков: Ci - перистые, Cs - перисто-слоистые, Cc - перисто-кучевые, Ac - высококучевые, As - высокослоистые, Sc - слоисто-кучевые, Ns - слоисто-дождевые, Cu - кучевые, Cb - кучево-дождевые. Подробнее классификацию облаков см. в Атласе облаков (PDF).
T - Температура воздуха - температура, измеренная на высоте 2 м над землей.
Td - Температура точки росы - температура, при понижении до которой содержащийся в воздухе водяной пар достигнет насыщения.
f - Относительная влажность воздуха - влажноcть воздуха, измеренная на высоте 2 м над землей.
Te - Эффективная температура - температура, которую ощущает одетый по сезону человек в тени. Характеристика душности погоды. При расчете учитывается влияние влажности воздуха и скорости ветра на теплоощущения человека.
Tes - Эффективная температура на солнце - температура, которую ощущает человек, с поправкой на солнечный нагрев. Характеристика знойности погоды. Зависит от высоты солнца над горизонтом, облачности и скорости ветра. Ночью, в пасмурную погоду, а также при ветре 12 м/с и более поправка равна нулю.
P - Атмосферное давление - приведенное к уровню моря атмосферное давление.
Po - Атмосферное давление - измеренное на уровне метеостанции атмосферное давление.
Tmin - Минимальная температура - минимум температуры воздуха на высоте 2 м над землей.
Tmax - Максимальная температура - максимум температуры воздуха на высоте 2 м над землей.
R - Количество осадков - Количество выпавших осадков за период времени, мм. При наведении курсора мыши на число - период времени, за который выпало указанное количество осадков.
R24 - Количество осадков - Количество выпавших осадков за 24 часа, мм.
S - Снежный покров - Высота снежного покрова, см. При наведении курсора мыши на число - состояние снежного покрова и степень покрытия местности в баллах.